Location: Tauranga
(37.6860°S, 176.1670°E)
Time: 14:43:46
(UTC+13:00)

Cosmos 1271 Rocket - Pass Details

Date: 24 January 2019
Orbit: 498 x 547 km, 81.2° (Epoch: 16 February)

Event Time Altitude Azimuth Distance (km) Brightness Sun altitude
Rises 20:59:02 0° 185° (S) 2,740 6.9 -5.1°
Reaches altitude 10° 21:01:14 10° 182° (S) 1,843 6.0 -5.5°
Maximum altitude 21:05:16 62° 100° (E) 630 2.9 -6.2°
Drops below altitude 10° 21:09:16 10° 19° (NNE) 1,826 5.0 -6.9°
Enters shadow 21:11:15 - 15° (NNE) 2,636 5.9 -7.2°
